Starlink 1012

operational
NORAD ID: 44718 Int'l Des: 2019-074 Owner: SPXS Country: US Constellation: starlink
LEOCIRCULARSTARLINK_TYPE

Über Starlink 1012

Beschreibung wird geladen...

Live-Position

3D-Globus wird geladen...

Nächste Überflüge

Höhenverlauf

Altitude vs Time

uPlot chart will show altitude changes over time

Zweizeiliger Elementsatz

1 44718U 19074F 25353.53576587 -.00000377 00000-0 -63746-5 0 9999
2 44718 53.0549 186.4401 0001767 89.3185 270.8007 15.06401492336661
Epoch: 19. Dez. 2025 • Age: 17 hours

Aktueller Status

Höhe 564.4 km
Geschwindigkeit 7.58 km/s
Subsatellitenpunkt -47.15°S, 50.82°W
Startdatum 11. Nov. 2019
Alter 6.1 years
Typ internet

Technische Details

Klassifizierung Payload
Masse 260.00 kg
Trockenmasse 248.00 kg
Gesamtmasse 260.00 kg
Länge 0.20 m
Durchmesser 2.80 m
Spannweite 9.00 m
Form Box + pan
Hersteller SPXS
Bus-Typ Starlink
Phasenstatus In Orbit
Besitzer/Staat SPXS/US

Große Konstellationen

Loading constellations...